This is the latest recevied weather packets stored in our database for station/object KE5VT. If no packets are shown the sender has not sent any weather packets the latest 10 day(s).
| Time | Temp. | Humidity | Pressure | Rain* | Wind** | Luminosity | Snow |
|---|---|---|---|---|---|---|---|
| 1777618815 | 15.56° C | 44% | 1009.5 hPa | 0 mm | - | 0 W/m² | - |
| 1777618509 | 15.56° C | 47% | 1009.4 hPa | 0 mm | - | 0 W/m² | - |
| 1777618206 | 16.11° C | 45% | 1009.5 hPa | 0 mm | - | 0 W/m² | - |
| 1777617903 | 16.11° C | 45% | 1009.5 hPa | 0 mm | - | 0 W/m² | - |
| 1777617598 | 16.11° C | 47% | 1009.4 hPa | 0 mm | - | 0 W/m² | - |
| 1777617295 | 16.11° C | 46% | 1009.6 hPa | 0 mm | - | 0 W/m² | - |
| 1777616993 | 16.11° C | 47% | 1009.5 hPa | 0 mm | - | 0 W/m² | - |
| 1777616687 | 16.11° C | 45% | 1009.7 hPa | 0 mm | - | 0 W/m² | - |
| 1777616382 | 16.11° C | 45% | 1009.3 hPa | 0 mm | - | 0 W/m² | - |
| 1777616079 | 16.11° C | 45% | 1009.4 hPa | 0 mm | - | 0 W/m² | - |
| 1777615777 | 16.11° C | 48% | 1009.3 hPa | 0 mm | - | 0 W/m² | - |
| 1777615474 | 16.11° C | 46% | 1009.6 hPa | 0 mm | - | 0 W/m² | - |
| 1777615172 | 16.11° C | 45% | 1009.5 hPa | 0 mm | - | 0 W/m² | - |
| 1777614868 | 16.67° C | 46% | 1009.6 hPa | 0 mm | - | 0 W/m² | - |
| 1777614565 | 16.11° C | 46% | 1009.5 hPa | 0 mm | - | 0 W/m² | - |
| 1777614260 | 16.67° C | 44% | 1009.5 hPa | 0 mm | - | 0 W/m² | - |
| 1777613955 | 16.67° C | 44% | 1009.6 hPa | 0 mm | - | 0 W/m² | - |
| 1777613652 | 16.67° C | 45% | 1009.6 hPa | 0 mm | - | 0 W/m² | - |
| 1777613350 | 16.67° C | 45% | 1009.7 hPa | 0 mm | - | 0 W/m² | - |
| 1777613046 | 16.67° C | 46% | 1009.8 hPa | 0 mm | - | 0 W/m² | - |
| 1777612743 | 16.67° C | 46% | 1009.6 hPa | 0 mm | - | 0 W/m² | - |
| 1777612438 | 16.11° C | 49% | 1009.5 hPa | 0 mm | - | 0 W/m² | - |
| 1777612133 | 16.67° C | 51% | 1009.6 hPa | 0 mm | - | 0 W/m² | - |
| 1777611829 | 16.11° C | 49% | 1009.6 hPa | 0 mm | - | 0 W/m² | - |
| 1777611525 | 16.67° C | 51% | 1009.5 hPa | 0 mm | - | 0 W/m² | - |
* Rain latest hour (hover to see other rain measurements)
** Current wind speed in m/s (hover to see current wind gust speed)